This demonstration page uses our WeatherBlox Daily Observations layout. Learn more.

Left ArrowRight Arrow

36.17497, -115.13722

Hourly Observations for February 15, 2020

Temp ( °F °C ) Dew Point ( °F °C ) Humidity (%) Winds ( mph kmh ) Pressure ( in mb ) Visibility ( mi km ) Precip ( " mm )
12:53 am 00:53 Clear 45 7.2 22 -5.6 40 40 WNW 5 7 30.13 1020 10 16.0934 0 0
1:53 am 01:53 Clear 46 7.8 20 -6.7 35 35 NW 7 11 30.14 1021 10 16.0934 0 0
2:53 am 02:53 Clear 43 6.1 18 -7.8 37 37 NW 5 7 30.15 1021 10 16.0934 0 0
3:53 am 03:53 Clear 43 6.1 19 -7.2 38 38 WNW 5 7 30.16 1021 10 16.0934 0 0
4:53 am 04:53 Clear 44 6.7 17 -8.3 34 34 NW 6 9 30.15 1021 10 16.0934 0 0
5:53 am 05:53 Clear 42 5.6 18 -7.8 38 38 WNW 7 11 30.16 1021 10 16.0934 0 0
6:53 am 06:53 Sunny 43 6.1 18 -7.8 37 37 NW 6 9 30.17 1022 10 16.0934 0 0
7:53 am 07:53 Sunny 49 9.4 17 -8.3 28 28 NNW 6 9 30.19 1022 10 16.0934 0 0
8:53 am 08:53 Sunny 53 11.7 20 -6.7 27 27 Calm 30.21 1023 10 16.0934 0 0
9:53 am 09:53 Sunny 55 12.8 21 -6.1 26 26 E 3 6 30.23 1024 10 16.0934 0 0
10:53 am 10:53 Sunny 58 14.4 20 -6.7 23 23 SE 5 7 30.22 1023 10 16.0934 0 0
11:53 am 11:53 Sunny 61 16.1 19 -7.2 20 20 ESE 3 6 30.2 1023 10 16.0934 0 0
12:53 pm 12:53 Sunny 62 16.7 17 -8.3 17 17 VRB 3 6 30.15 1021 10 16.0934 0 0
1:53 pm 13:53 Sunny 64 17.8 18 -7.8 17 17 ENE 6 9 30.13 1020 10 16.0934 0 0
2:53 pm 14:53 Sunny 65 18.3 18 -7.8 16 16 Calm 30.12 1020 10 16.0934 0 0
3:53 pm 15:53 Sunny 65 18.3 19 -7.2 17 17 ESE 6 9 30.11 1020 10 16.0934 0 0
4:53 pm 16:53 Sunny 64 17.8 20 -6.7 18 18 NE 5 7 30.09 1019 10 16.0934 0 0
5:53 pm 17:53 Clear 62 16.7 20 -6.7 20 20 NE 5 7 30.1 1019 10 16.0934 0 0
6:53 pm 18:53 Clear 60 15.6 21 -6.1 22 22 NE 6 9 30.11 1020 10 16.0934 0 0
7:53 pm 19:53 Clear 56 13.3 22 -5.6 27 27 WNW 3 6 30.13 1020 10 16.0934 0 0
8:53 pm 20:53 Clear 53 11.7 22 -5.6 30 30 NW 7 11 30.14 1021 10 16.0934 0 0
9:53 pm 21:53 Clear 52 11.1 23 -5 32 32 NW 8 13 30.14 1021 10 16.0934 0 0
10:53 pm 22:53 Clear 50 10 23 -5 35 35 NNW 8 13 30.14 1021 10 16.0934 0 0
11:53 pm 23:53 Clear 49 9.4 24 -4.4 38 38 NNW 6 9 30.13 1020 10 16.0934 0 0

Powered by AerisWeather